This is the latest recevied weather packets stored in our database for station/object OM6ABF-11. If no packets are shown the sender has not sent any weather packets the latest 10 day(s).
| Time | Temp. | Humidity | Pressure | Rain* | Wind** | Luminosity | Snow |
|---|---|---|---|---|---|---|---|
| 1777994963 | 22.78° C | 24% | 1010.9 hPa | - | - | - | - |
| 1777994063 | 22.78° C | 24% | 1011 hPa | - | - | - | - |
| 1777993163 | 23.33° C | 23% | 1011.2 hPa | - | - | - | - |
| 1777992263 | 22.22° C | 24% | 1011.2 hPa | - | - | - | - |
| 1777991364 | 24.44° C | 18% | 1011.2 hPa | - | - | - | - |
| 1777990463 | 23.33° C | 18% | 1011.4 hPa | - | - | - | - |
| 1777989564 | 24.44° C | 19% | 1011.4 hPa | - | - | - | - |
| 1777988666 | 24.44° C | 19% | 1011.2 hPa | - | - | - | - |
| 1777987768 | 24.44° C | 19% | 1011.5 hPa | - | - | - | - |
| 1777986869 | 24.44° C | 19% | 1011.5 hPa | - | - | - | - |
| 1777985968 | 23.33° C | 21% | 1011.7 hPa | - | - | - | - |
| 1777985070 | 25° C | 17% | 1011.7 hPa | - | - | - | - |
| 1777984172 | 25° C | 17% | 1011.8 hPa | - | - | - | - |
| 1777983273 | 25° C | 18% | 1012 hPa | - | - | - | - |
| 1777982374 | 25° C | 15% | 1012 hPa | - | - | - | - |
| 1777981474 | 25.56° C | 19% | 1012 hPa | - | - | - | - |
| 1777980576 | 24.44° C | 18% | 1012.3 hPa | - | - | - | - |
| 1777979676 | 24.44° C | 19% | 1012.6 hPa | - | - | - | - |
| 1777978776 | 23.33° C | 19% | 1012.8 hPa | - | - | - | - |
| 1777977877 | 23.33° C | 20% | 1012.6 hPa | - | - | - | - |
| 1777976978 | 23.33° C | 25% | 1012.6 hPa | - | - | - | - |
| 1777976078 | 24.44° C | 24% | 1013.1 hPa | - | - | - | - |
| 1777975179 | 22.22° C | 25% | 1013 hPa | - | - | - | - |
| 1777974280 | 22.78° C | 25% | 1013.1 hPa | - | - | - | - |
| 1777973381 | 22.78° C | 26% | 1013.3 hPa | - | - | - | - |
* Rain since midnight (hover to see other rain measurements)
** Current wind speed in m/s (hover to see current wind gust speed)